Temperature
17 17 17 17 17 17 17 16 16 16 16 16 16 16 15 15 15 15 15 15 15 15 14 15 14 14 14 14 14 14 14 14 14 14 13 13 13 13 13 13 13 13 13
17 17 17 17 17 16 16 16 16 16 16 16 16 16 15 15 15 15 15 15 15 14 14 14 14 14 14 14 14 14 14 14 13 13 13 13 13 13 13 13 13 13 13
17 17 17 17 17 16 16 16 16 16 16 16 16 16 15 15 15 15 15 15 15 14 14 14 14 14 14 14 14 14 14 14 13 13 13 13 13 13 13 13 13 13 12
17 17 17 17 16 16 16 16 16 16 16 16 16 16 15 15 15 15 15 15 15 15 14 14 14 14 14 14 14 14 14 14 13 13 13 13 13 13 13 13 12 12 12
17 17 17 17 16 16 16 16 16 16 16 16 16 16 15 15 15 15 15 15 15 15 14 14 14 14 14 14 14 14 14 13 13 13 13 12 12 12 12 12 12 12 12
17 17 17 17 16 16 16 16 16 16 16 15 15 15 15 15 15 15 15 15 15 15 14 14 14 14 14 14 14 13 13 13 13 13 12 12 12 12 12 12 12 11 11
17 17 17 17 16 16 16 16 16 16 15 15 15 15 15 15 15 15 15 15 14 14 14 14 14 14 14 14 13 13 13 13 13 12 12 12 12 12 12 11 11 11 11
17 17 17 17 16 16 16 16 15 15 15 15 15 15 15 15 15 15 15 14 14 14 14 14 14 14 13 13 13 13 13 12 12 12 12 12 12 11 11 11 11 11 10
17 17 17 16 16 16 16 16 15 15 15 15 15 15 15 15 15 15 14 14 14 14 13 13 13 13 13 13 13 13 12 12 12 12 11 11 11 11 11 10 10 10 10
17 17 17 16 16 16 16 15 15 15 15 15 15 15 15 15 14 14 14 14 13 13 13 13 13 13 13 12 12 12 12 12 12 11 11 11 11 10 10 10 10 9 9
17 17 16 16 16 16 15 15 15 15 15 15 14 14 14 14 14 14 14 13 13 13 13 13 13 12 12 12 12 12 11 11 11 11 10 10 10 10 10 9 9 9 8
17 17 16 16 16 15 15 15 15 15 15 14 14 14 14 14 14 14 13 13 13 13 12 12 12 12 12 12 11 11 11 11 10 10 10 10 9 9 9 9 8 8 8
17 16 16 16 15 15 15 15 15 14 14 14 14 14 14 13 13 13 13 13 13 12 12 12 12 11 11 11 11 11 10 10 10 9 9 9 9 8 8 8 8 8 8
16 16 16 15 15 15 15 15 14 14 14 14 13 13 13 13 13 13 13 12 12 12 12 11 11 11 11 10 10 10 10 9 9 9 8 8 8 8 8 7 7 7 7
16 16 15 15 15 14 14 14 14 14 14 14 13 13 13 13 13 12 12 12 12 11 11 11 11 11 10 10 10 9 9 9 8 8 8 8 7 7 7 6 6 6 6
16 15 15 15 14 14 14 14 13 13 13 13 13 13 12 12 12 12 12 11 11 11 11 11 10 10 10 9 9 8 8 8 7 7 7 7 6 6 6 6 5 5 5
15 15 15 14 14 14 14 13 13 13 13 13 12 12 12 12 12 11 11 11 11 10 10 10 10 9 9 8 8 8 7 7 7 6 6 6 5 5 5 5 4 4 4
15 15 14 14 14 14 13 13 13 13 12 12 12 11 11 11 11 11 10 10 10 10 10 9 9 9 8 8 8 7 7 6 6 6 5 5 5 5 4 4 4 3 3
14 14 14 14 13 13 13 12 12 12 12 12 11 11 11 10 10 10 10 10 10 9 9 9 8 8 8 7 7 7 6 6 6 5 5 5 4 4 4 3 3 3 2
14 14 13 13 13 13 12 12 12 11 11 11 11 11 11 10 10 10 10 9 9 9 8 8 8 7 7 7 6 6 6 5 5 4 4 4 3 3 3 2 2 2 2
14 13 13 13 13 12 12 12 11 11 11 11 11 10 10 10 10 10 9 9 9 8 8 7 7 7 7 6 6 5 5 4 4 4 3 3 3 2 2 2 1 1 1
13 13 13 12 12 12 12 11 11 11 10 10 10 10 10 9 9 9 9 8 8 8 7 7 7 6 6 5 5 5 4 4 3 3 3 2 2 2 1 1 1 1 0
12 12 12 12 12 11 11 11 11 10 10 10 10 9 9 9 8 8 8 8 7 7 7 6 6 6 5 5 4 4 4 3 3 2 2 2 1 1 1 0 0 -0 -0
12 12 11 11 11 11 11 10 10 10 10 9 9 9 8 8 8 7 7 7 7 6 6 6 5 5 5 4 4 3 3 3 2 2 2 1 1 1 0 -0 -0 -1 -1
11 11 11 10 10 10 10 10 10 9 9 9 8 8 8 7 7 7 6 6 6 6 5 5 5 4 4 4 3 3 3 2 2 1 1 1 1 0 -0 -0 -1 -1 -1
10 10 10 10 10 9 9 9 9 9 8 8 8 7 7 7 6 6 6 5 5 5 4 4 4 4 3 3 3 2 2 2 2 1 1 1 0 0 -0 -1 -1 -1 -1
Wind_Speed
5 5 4 4 4 3 2 3 3 3 3 3 2 3 3 3 3 3 1 1 1 1 2 3 3 3 2 2 2 2 2 2 1 2 1 1 2 1 1 1 1 2 2
4 4 5 4 4 4 3 3 3 3 3 3 3 2 2 2 2 3 2 1 1 1 1 2 2 2 2 2 2 2 2 2 2 1 2 2 2 1 1 1 2 2 2
5 4 5 5 4 4 3 3 3 3 3 2 3 3 2 2 2 2 2 2 1 1 2 2 2 2 2 1 1 2 1 2 1 1 1 1 1 1 1 2 2 2 3
6 5 4 5 5 5 4 3 2 2 2 2 3 3 3 2 2 1 1 1 1 1 2 3 3 3 2 2 2 2 2 2 2 1 1 2 1 1 1 2 3 3 3
6 5 4 5 5 4 4 3 2 2 2 1 2 3 3 2 1 2 1 1 1 2 2 3 4 4 5 4 3 2 2 2 1 1 1 2 2 2 1 1 2 3 3
7 6 5 4 4 4 5 4 3 3 2 1 2 3 3 2 4 4 3 2 1 1 2 2 3 4 3 3 3 2 2 1 1 1 1 2 3 2 2 2 2 3 4
7 6 6 5 5 4 4 4 4 3 2 2 2 3 3 2 3 2 2 1 0 1 1 1 1 2 3 1 0 1 1 1 2 1 0 2 2 2 2 2 3 3 3
6 7 6 6 6 5 4 4 4 4 3 3 3 3 3 2 2 1 2 1 1 1 1 1 2 2 3 2 1 1 1 1 2 2 2 2 1 1 1 2 2 3 4
5 7 7 6 6 6 5 5 4 3 3 3 3 3 4 2 2 1 0 1 0 1 2 3 3 2 4 4 2 1 2 2 2 1 2 3 3 4 3 2 3 3 4
5 5 6 6 6 6 5 4 4 4 4 4 3 3 4 3 3 3 2 0 0 0 2 3 4 3 4 4 2 2 2 3 3 4 3 3 3 3 3 0 1 1 3
5 5 5 6 6 5 4 4 4 4 4 4 4 3 3 3 3 3 3 0 0 1 1 2 2 4 4 4 3 2 2 3 3 3 3 3 3 3 3 3 2 1 2
6 6 5 5 5 4 4 3 4 4 4 4 3 3 2 3 3 3 3 2 1 2 1 2 2 3 3 3 2 4 6 5 2 2 3 3 3 3 3 4 4 4 3
7 6 6 5 5 5 5 4 3 3 3 3 3 2 2 2 3 3 3 2 1 2 2 3 3 2 1 1 2 4 4 3 2 2 2 2 2 3 3 4 5 6 7
7 7 6 6 5 5 4 4 3 3 3 3 3 3 2 2 2 2 2 2 2 2 2 2 3 3 2 2 2 2 2 2 2 2 2 3 3 3 3 3 3 3 3
6 6 6 6 6 5 5 3 4 3 3 4 3 3 3 2 2 4 4 2 2 2 2 1 1 2 2 1 1 2 2 2 2 2 2 3 3 3 3 3 3 3 3
6 6 5 5 5 6 5 5 6 5 6 6 6 5 3 4 5 6 5 4 3 4 3 1 1 1 1 1 1 1 2 2 2 2 2 3 3 3 4 4 4 3 4
5 6 5 5 5 5 5 5 4 4 6 5 5 6 6 6 6 6 5 5 4 4 3 1 1 1 1 1 1 1 2 2 2 2 2 3 3 4 4 4 5 5 5
5 6 6 5 5 5 5 5 5 5 4 2 2 5 6 6 5 5 5 6 3 2 2 1 1 1 1 1 1 1 1 2 2 2 3 3 3 4 4 5 5 5 5
4 4 4 5 4 4 5 5 5 5 4 3 3 2 4 5 5 5 5 3 2 2 1 1 1 1 1 1 1 1 2 2 2 2 2 3 3 3 4 4 5 7 6
4 5 5 4 4 4 4 4 4 4 4 4 3 3 3 3 3 2 2 1 2 1 1 1 0 1 1 1 1 1 2 2 2 2 2 3 3 3 4 5 5 5 5
4 5 6 4 4 4 4 4 4 4 4 4 3 4 6 4 3 3 2 2 2 1 2 1 1 1 1 1 1 1 1 2 2 2 2 3 3 3 4 4 5 5 5
4 4 4 4 3 4 4 3 3 4 4 4 3 4 7 4 3 3 2 2 1 1 2 2 1 1 1 2 1 1 1 2 2 2 3 3 4 4 4 4 5 5 5
3 4 4 3 3 4 4 3 3 3 3 3 4 4 4 3 2 2 2 2 2 2 4 4 3 3 3 4 3 2 2 2 2 3 3 3 4 4 4 5 6 6 6
3 3 4 4 3 3 3 3 3 3 3 4 4 4 4 3 3 3 2 3 3 3 3 4 3 3 4 4 4 3 3 4 4 4 4 4 4 4 4 5 6 7 7
3 3 3 3 3 3 3 3 3 3 3 3 3 3 3 3 3 3 3 3 3 3 3 3 3 4 4 4 4 3 4 5 5 5 5 4 4 4 5 5 6 6 7
3 3 3 3 3 3 3 3 3 3 3 3 3 3 3 3 3 3 3 2 2 2 3 3 4 4 4 4 4 4 4 5 6 6 5 4 3 4 5 5 7 6 7
Wind_Direction
177 167 157 156 153 151 145 133 128 122 137 146 132 131 133 130 124 122 103 36 57 79 78 84 68 49 45 28 25 28 30 53 59 343 20 40 75 55 65 338 239 196 206
167 157 157 155 154 154 148 148 161 151 159 157 137 116 104 111 125 123 128 121 76 64 62 85 97 84 62 38 33 30 32 49 80 10 350 6 15 9 48 321 316 275 240
153 159 159 156 161 160 160 169 169 155 160 149 128 124 122 107 99 119 148 154 135 117 93 87 81 76 68 46 53 35 13 38 60 76 337 336 333 351 27 336 323 317 302
160 169 166 159 159 161 161 155 153 142 151 158 141 130 119 96 68 52 71 101 121 111 99 100 83 77 62 32 45 25 28 33 28 35 338 325 312 320 48 333 332 317 307
161 165 172 162 153 154 145 142 132 107 94 102 113 107 94 93 57 47 9 19 92 91 88 100 101 92 80 65 60 31 34 38 22 15 337 343 334 347 329 312 323 314 308
164 166 166 157 151 151 148 153 147 133 117 92 104 109 100 79 70 64 29 0 43 83 95 93 115 109 95 83 76 67 77 85 19 14 351 344 328 333 332 335 327 336 320
167 166 159 155 151 150 152 152 152 149 140 137 127 124 120 103 93 63 12 328 33 88 94 97 87 94 115 158 216 276 309 261 206 177 240 285 304 320 337 341 335 320 290
167 163 159 160 160 157 156 159 163 162 162 168 167 151 137 135 124 86 341 285 226 160 131 118 98 69 32 32 45 47 326 291 245 209 216 248 286 328 339 318 300 312 303
164 164 160 159 160 163 168 170 171 162 161 168 168 157 151 158 161 158 141 256 249 147 87 66 84 80 33 28 27 4 339 329 323 287 262 272 291 312 340 9 344 346 321
157 160 157 157 160 165 170 172 164 159 167 165 157 160 161 156 166 164 165 173 256 81 99 82 68 69 41 33 35 24 1 332 335 331 326 316 321 319 320 317 272 319 319
151 147 144 149 154 157 165 161 154 152 152 154 153 153 138 131 146 150 151 168 159 88 75 84 78 70 54 36 33 32 341 330 326 338 352 355 356 354 349 340 337 259 283
138 138 138 141 148 148 142 143 143 144 148 151 144 141 124 121 126 145 156 165 54 95 87 86 92 92 71 41 26 6 0 6 0 3 0 348 346 338 335 349 341 332 309
133 135 134 135 131 129 133 136 135 138 148 157 147 141 128 115 113 123 141 140 89 79 77 88 93 84 66 34 5 6 7 17 14 8 348 336 334 335 349 355 350 340 326
139 144 142 136 124 116 116 124 129 142 153 155 151 146 131 110 107 116 128 126 105 89 76 73 80 80 59 14 11 8 11 15 18 358 341 331 339 345 344 346 338 333 328
148 145 142 136 132 121 112 109 125 119 144 146 142 139 139 138 144 129 128 132 134 132 112 85 72 72 63 36 22 15 12 12 8 351 346 347 348 348 342 344 340 333 328
148 143 137 136 134 134 129 106 77 93 104 110 116 123 110 119 117 119 119 115 114 113 101 93 79 78 77 47 37 17 14 9 2 356 351 351 348 346 341 341 342 339 332
147 144 141 142 143 143 145 145 133 92 81 91 109 118 114 109 108 112 112 106 101 110 101 103 73 44 53 51 43 31 4 353 2 1 351 350 350 346 343 342 345 345 339
146 147 147 150 152 154 157 156 151 146 137 116 116 134 125 116 114 113 110 100 86 98 103 106 81 60 60 50 35 20 9 10 12 5 359 360 0 354 348 342 340 336 328
134 140 142 143 147 151 152 152 152 151 147 139 119 119 133 122 111 106 111 106 119 118 117 100 69 71 69 59 44 41 32 18 11 7 2 360 359 355 343 336 332 333 332
133 138 142 143 145 146 151 152 154 153 152 152 154 150 140 119 110 113 130 133 131 133 138 136 100 79 74 68 60 53 35 17 6 6 1 355 351 348 335 330 329 328 327
140 144 144 143 148 152 155 160 159 158 161 160 161 151 145 148 153 153 158 163 160 157 143 128 101 84 80 78 73 52 31 2 359 3 359 348 343 336 328 325 324 323 322
137 139 145 151 152 155 157 160 160 158 158 155 144 136 143 149 156 157 156 155 148 110 98 108 101 70 61 58 56 38 11 356 359 2 352 342 334 329 329 328 325 323 322
136 144 150 155 154 156 158 158 155 152 148 144 136 131 146 159 148 136 130 123 95 74 64 67 66 50 50 49 39 26 17 4 351 349 340 333 329 326 325 322 319 319 318
139 146 151 150 147 146 148 143 133 130 133 131 129 131 139 143 130 118 112 94 86 74 68 66 66 63 61 47 36 36 40 26 10 356 340 327 324 321 319 316 314 313 314
128 130 133 136 137 137 137 132 127 128 128 126 125 127 128 125 118 113 101 88 87 83 70 65 67 65 64 48 39 45 39 22 4 353 343 326 314 313 311 309 310 312 313
115 115 117 117 121 126 131 133 130 123 121 120 121 123 124 125 125 123 110 99 90 83 68 64 64 57 50 42 42 38 24 9 358 348 338 320 309 307 311 308 310 310 309
Height
1551 1553 1555 1556 1557 1559 1560 1561 1562 1563 1564 1565 1565 1566 1566 1566 1566 1566 1566 1566 1566 1566 1566 1566 1566 1565 1565 1565 1565 1565 1564 1564 1564 1564 1563 1562 1561 1560 1559 1558 1556 1555 1554
1550 1552 1554 1555 1556 1558 1559 1561 1562 1563 1564 1565 1565 1566 1566 1566 1566 1566 1566 1566 1566 1566 1566 1566 1565 1565 1565 1565 1564 1564 1564 1564 1564 1563 1563 1562 1561 1560 1558 1557 1556 1555 1553
1549 1551 1553 1554 1555 1557 1558 1560 1561 1562 1563 1564 1565 1565 1565 1565 1566 1566 1566 1566 1566 1566 1566 1565 1565 1565 1565 1564 1564 1564 1564 1563 1563 1562 1562 1561 1560 1559 1558 1557 1555 1554 1553
1548 1549 1551 1553 1554 1555 1557 1559 1560 1561 1562 1563 1563 1564 1564 1565 1565 1565 1565 1565 1565 1565 1565 1565 1565 1565 1564 1564 1563 1563 1563 1562 1562 1561 1561 1560 1559 1558 1557 1555 1554 1553 1551
1546 1548 1549 1551 1553 1554 1556 1557 1558 1559 1561 1562 1562 1563 1563 1564 1564 1564 1564 1564 1565 1565 1565 1565 1564 1564 1564 1563 1563 1562 1562 1561 1561 1560 1560 1559 1558 1557 1555 1554 1552 1551 1550
1544 1546 1548 1549 1551 1552 1554 1555 1556 1557 1559 1560 1561 1561 1562 1562 1562 1563 1563 1563 1564 1564 1563 1563 1563 1563 1563 1563 1562 1562 1561 1560 1560 1559 1558 1558 1557 1555 1554 1553 1551 1549 1547
1542 1544 1546 1547 1549 1550 1552 1553 1554 1556 1557 1558 1559 1559 1560 1560 1561 1562 1562 1562 1562 1562 1562 1562 1562 1562 1562 1561 1561 1560 1560 1559 1559 1558 1557 1556 1555 1554 1552 1551 1549 1548 1546
1540 1541 1543 1545 1546 1548 1550 1551 1552 1554 1555 1556 1557 1557 1558 1559 1559 1560 1560 1561 1561 1561 1561 1561 1561 1561 1560 1559 1559 1559 1558 1558 1557 1556 1555 1554 1553 1552 1550 1549 1547 1545 1544
1537 1539 1540 1542 1544 1546 1547 1549 1550 1551 1553 1554 1555 1555 1556 1557 1558 1558 1558 1559 1559 1559 1559 1559 1559 1559 1559 1558 1557 1557 1556 1556 1555 1554 1554 1552 1551 1550 1548 1547 1544 1542 1540
1535 1537 1538 1540 1541 1543 1545 1547 1548 1549 1550 1551 1552 1553 1554 1555 1555 1556 1556 1556 1557 1557 1557 1557 1557 1557 1557 1556 1555 1554 1554 1553 1553 1552 1551 1550 1549 1547 1546 1544 1542 1540 1538
1533 1534 1536 1538 1540 1541 1543 1545 1546 1547 1548 1549 1550 1551 1552 1552 1553 1554 1554 1554 1554 1554 1555 1555 1555 1555 1554 1554 1553 1553 1552 1551 1550 1550 1549 1548 1546 1545 1543 1542 1540 1538 1536
1531 1532 1534 1536 1538 1539 1541 1542 1544 1545 1546 1547 1548 1549 1549 1550 1551 1551 1551 1551 1552 1552 1552 1552 1552 1552 1552 1552 1551 1551 1550 1549 1548 1547 1546 1545 1543 1542 1540 1539 1538 1536 1534
1529 1530 1532 1534 1535 1537 1538 1540 1541 1542 1543 1545 1546 1546 1547 1547 1548 1548 1549 1549 1550 1550 1550 1550 1550 1550 1550 1549 1549 1548 1548 1547 1546 1545 1543 1542 1541 1540 1538 1536 1534 1533 1531
1526 1528 1530 1532 1533 1535 1536 1537 1539 1540 1541 1542 1543 1544 1545 1545 1546 1546 1546 1547 1547 1547 1548 1548 1548 1548 1548 1547 1547 1546 1545 1545 1544 1542 1541 1540 1538 1537 1535 1533 1531 1529 1527
1524 1526 1528 1529 1531 1532 1534 1535 1536 1538 1539 1540 1541 1542 1543 1543 1544 1545 1545 1545 1545 1545 1545 1545 1545 1545 1545 1545 1544 1544 1543 1542 1541 1540 1538 1536 1535 1533 1532 1530 1528 1526 1524
1523 1524 1526 1528 1529 1531 1532 1533 1535 1536 1537 1538 1540 1541 1541 1542 1542 1543 1543 1543 1543 1543 1543 1543 1543 1543 1542 1542 1542 1541 1540 1539 1538 1537 1535 1534 1532 1530 1528 1527 1525 1523 1521
1520 1522 1523 1525 1527 1529 1530 1531 1532 1534 1535 1536 1537 1538 1539 1539 1540 1540 1541 1541 1541 1541 1541 1540 1540 1540 1540 1540 1539 1539 1538 1537 1536 1534 1533 1531 1529 1527 1525 1523 1522 1519 1517
1518 1520 1521 1523 1525 1526 1528 1529 1530 1531 1532 1533 1535 1536 1536 1537 1538 1538 1539 1539 1538 1538 1538 1538 1538 1538 1538 1538 1537 1536 1535 1534 1533 1531 1530 1528 1526 1524 1522 1520 1518 1516 1514
1516 1517 1519 1521 1523 1524 1526 1527 1528 1529 1530 1531 1532 1533 1534 1535 1535 1536 1536 1536 1536 1536 1536 1536 1536 1536 1535 1535 1534 1533 1532 1531 1530 1528 1527 1525 1523 1521 1519 1517 1515 1513 1511
1514 1515 1517 1519 1520 1522 1524 1525 1526 1527 1528 1528 1529 1530 1531 1532 1532 1533 1533 1533 1533 1533 1533 1533 1533 1533 1532 1532 1531 1530 1529 1528 1526 1525 1523 1522 1520 1518 1516 1514 1512 1509 1507
1511 1513 1515 1516 1518 1519 1521 1522 1523 1525 1525 1526 1527 1528 1528 1529 1529 1530 1530 1530 1530 1531 1531 1531 1530 1530 1529 1528 1528 1527 1525 1524 1523 1521 1520 1518 1516 1514 1512 1510 1508 1506 1503
1509 1510 1512 1514 1515 1517 1518 1520 1521 1522 1523 1524 1525 1526 1526 1526 1527 1527 1527 1528 1528 1528 1528 1528 1527 1527 1526 1525 1524 1523 1522 1521 1519 1518 1516 1514 1513 1510 1508 1506 1504 1502 1499
1507 1508 1510 1511 1513 1514 1516 1517 1518 1519 1520 1521 1522 1522 1523 1523 1523 1524 1524 1524 1525 1525 1524 1524 1524 1523 1523 1522 1521 1520 1518 1517 1515 1514 1512 1510 1508 1506 1504 1502 1500 1498 1495
1505 1506 1507 1509 1510 1511 1513 1514 1515 1516 1517 1518 1519 1519 1519 1520 1520 1520 1521 1521 1521 1521 1521 1520 1520 1520 1519 1518 1517 1516 1515 1513 1512 1510 1508 1506 1504 1502 1500 1498 1496 1494 1491
1502 1503 1504 1506 1507 1509 1510 1511 1512 1513 1514 1515 1515 1516 1516 1517 1517 1517 1517 1518 1518 1518 1518 1517 1517 1516 1515 1515 1514 1512 1511 1510 1508 1506 1504 1502 1501 1499 1497 1495 1492 1490 1488
1499 1501 1502 1503 1504 1506 1507 1508 1509 1510 1511 1511 1512 1513 1513 1513 1514 1514 1514 1514 1514 1514 1514 1514 1513 1513 1512 1511 1510 1509 1507 1506 1504 1502 1500 1498 1497 1495 1493 1491 1488 1486 1484